EJA904 KFXE-KCRG

Flight info

Callsign EJA904
Flight time 0h 47m
Altitude 36000
Route FRSBE2 STYMY ORL POGIE2
Aircraft C700/M-V/N

Departure

Time 2026-05-03 23:55
Airport Fort Lauderdale Executive Airport (KFXE)

Arrival

Time 2026-05-04 00:42
Airport Jacksonville Executive at Craig Airport (KCRG)
Time Latitude Longitude Altitude Speed Heading
2026-05-03 23:25 26.19451 -80.17036 22 ft 0 kts 213°
2026-05-03 23:47 26.19450 -80.17040 22 ft 2 kts 258°
2026-05-03 23:47 26.19471 -80.17063 22 ft 9 kts 315°
2026-05-03 23:47 26.19523 -80.17087 24 ft 7 kts 36°
2026-05-03 23:48 26.19564 -80.17087 23 ft 6 kts 325°
2026-05-03 23:48 26.19596 -80.17123 24 ft 8 kts 311°
2026-05-03 23:48 26.19632 -80.17173 23 ft 9 kts 308°
2026-05-03 23:48 26.19658 -80.17208 24 ft 9 kts 310°
2026-05-03 23:49 26.19696 -80.17259 25 ft 9 kts 308°
2026-05-03 23:49 26.19731 -80.17311 25 ft 9 kts 300°
2026-05-03 23:49 26.19735 -80.17380 25 ft 10 kts 256°
2026-05-03 23:49 26.19724 -80.17464 22 ft 12 kts 263°
2026-05-03 23:50 26.19715 -80.17570 19 ft 14 kts 264°
2026-05-03 23:50 26.19704 -80.17683 18 ft 14 kts 264°
2026-05-03 23:50 26.19693 -80.17792 18 ft 14 kts 264°
2026-05-03 23:50 26.19682 -80.17906 16 ft 16 kts 264°
2026-05-03 23:51 26.19673 -80.18030 13 ft 11 kts 282°
2026-05-03 23:51 26.19679 -80.18047 13 ft 0 kts 295°
2026-05-03 23:53 26.19680 -80.18048 13 ft 2 kts 295°
2026-05-03 23:54 26.19724 -80.18076 13 ft 11 kts 352°
2026-05-03 23:54 26.19767 -80.17996 14 ft 30 kts 81°
2026-05-03 23:54 26.19820 -80.17466 23 ft 107 kts 84°
2026-05-03 23:54 26.19921 -80.16404 116 ft 161 kts 85°
2026-05-03 23:55 26.20005 -80.14986 466 ft 211 kts 82°
2026-05-03 23:55 26.20211 -80.13167 888 ft 263 kts 78°
2026-05-03 23:55 26.20993 -80.11133 1300 ft 305 kts 57°
2026-05-03 23:55 26.22299 -80.09408 1654 ft 283 kts 38°
2026-05-03 23:56 26.24032 -80.08576 1955 ft 261 kts
2026-05-03 23:56 26.25786 -80.08825 1993 ft 255 kts 338°
2026-05-03 23:56 26.27123 -80.10028 1997 ft 251 kts 306°
2026-05-03 23:56 26.27832 -80.11740 2206 ft 236 kts 292°
2026-05-03 23:57 26.28332 -80.13431 2439 ft 223 kts 290°
2026-05-03 23:57 26.28790 -80.15036 2697 ft 210 kts 289°
2026-05-03 23:57 26.29347 -80.16460 2996 ft 192 kts 303°
2026-05-03 23:57 26.30073 -80.17627 3304 ft 175 kts 305°
2026-05-03 23:58 26.30763 -80.18666 3584 ft 159 kts 306°
2026-05-03 23:58 26.31404 -80.19617 3869 ft 156 kts 306°
2026-05-03 23:58 26.32146 -80.20720 4235 ft 199 kts 305°
2026-05-03 23:58 26.33033 -80.22035 4598 ft 232 kts 305°
2026-05-03 23:59 26.34088 -80.23586 4505 ft 263 kts 306°
2026-05-03 23:59 26.35215 -80.25250 4104 ft 273 kts 306°
2026-05-03 23:59 26.36332 -80.26899 4049 ft 258 kts 306°
2026-05-03 23:59 26.37397 -80.28476 4053 ft 253 kts 306°
2026-05-04 00:00 26.38466 -80.30061 4049 ft 259 kts 306°
2026-05-04 00:00 26.39562 -80.31685 4057 ft 265 kts 306°
2026-05-04 00:00 26.40674 -80.33340 4062 ft 268 kts 306°
2026-05-04 00:00 26.41763 -80.34957 4475 ft 254 kts 306°
2026-05-04 00:01 26.42696 -80.36643 4950 ft 260 kts 290°
2026-05-04 00:01 26.43178 -80.38602 5451 ft 264 kts 282°
2026-05-04 00:01 26.43625 -80.40594 5945 ft 263 kts 284°
2026-05-04 00:01 26.44194 -80.42539 6437 ft 264 kts 288°
2026-05-04 00:02 26.44818 -80.44470 6904 ft 265 kts 287°
2026-05-04 00:02 26.45410 -80.46399 7374 ft 266 kts 286°
2026-05-04 00:02 26.45994 -80.48360 7856 ft 267 kts 286°
2026-05-04 00:02 26.46586 -80.50329 8335 ft 268 kts 286°
2026-05-04 00:03 26.47197 -80.52297 8832 ft 269 kts 289°
2026-05-04 00:03 26.48110 -80.54142 9338 ft 274 kts 302°
2026-05-04 00:03 26.49382 -80.55742 9853 ft 278 kts 314°
2026-05-04 00:03 26.50973 -80.57013 10312 ft 289 kts 326°
2026-05-04 00:04 26.52932 -80.57908 10806 ft 318 kts 339°
2026-05-04 00:04 26.55090 -80.58576 11301 ft 323 kts 340°
2026-05-04 00:04 26.57253 -80.59253 11800 ft 322 kts 339°
2026-05-04 00:04 26.59390 -80.59937 12285 ft 323 kts 338°
2026-05-04 00:05 26.61560 -80.60630 12780 ft 325 kts 338°
2026-05-04 00:05 26.63747 -80.61325 13297 ft 328 kts 338°
2026-05-04 00:05 26.65955 -80.62025 13808 ft 331 kts 338°
2026-05-04 00:05 26.68180 -80.62733 14272 ft 334 kts 337°
2026-05-04 00:06 26.70422 -80.63446 14734 ft 336 kts 337°
2026-05-04 00:06 26.72680 -80.64165 15204 ft 339 kts 337°
2026-05-04 00:06 26.74959 -80.64891 15687 ft 342 kts 337°
2026-05-04 00:06 26.77261 -80.65624 16158 ft 345 kts 337°
2026-05-04 00:07 26.79582 -80.66364 16660 ft 348 kts 336°
2026-05-04 00:07 26.81926 -80.67111 17163 ft 351 kts 336°
2026-05-04 00:07 26.84255 -80.67854 17664 ft 354 kts 336°
2026-05-04 00:07 26.86639 -80.68615 18208 ft 358 kts 336°
2026-05-04 00:08 26.89049 -80.69385 18674 ft 363 kts 335°
2026-05-04 00:08 26.91491 -80.70180 19126 ft 365 kts 334°
2026-05-04 00:08 26.93904 -80.71090 19593 ft 367 kts 332°
2026-05-04 00:08 26.96326 -80.72014 20061 ft 368 kts 332°
2026-05-04 00:09 26.98757 -80.72931 20540 ft 370 kts 332°
2026-05-04 00:09 27.01204 -80.73852 21024 ft 371 kts 332°
2026-05-04 00:09 27.03665 -80.74784 21515 ft 375 kts 332°
2026-05-04 00:09 27.06149 -80.75727 22019 ft 379 kts 332°
2026-05-04 00:10 27.08631 -80.76667 22524 ft 382 kts 332°
2026-05-04 00:10 27.11167 -80.77625 23045 ft 385 kts 332°
2026-05-04 00:10 27.13712 -80.78589 23573 ft 387 kts 332°
2026-05-04 00:10 27.16275 -80.79563 24024 ft 390 kts 332°
2026-05-04 00:11 27.18865 -80.80545 24500 ft 393 kts 332°
2026-05-04 00:11 27.21465 -80.81532 24955 ft 396 kts 332°
2026-05-04 00:11 27.24092 -80.82529 25420 ft 400 kts 332°
2026-05-04 00:11 27.26707 -80.83523 25889 ft 403 kts 332°
2026-05-04 00:12 27.29404 -80.84547 26370 ft 405 kts 331°
2026-05-04 00:12 27.32037 -80.85549 26854 ft 406 kts 331°
2026-05-04 00:12 27.34727 -80.86656 27043 ft 420 kts 330°
2026-05-04 00:12 27.37542 -80.87830 27062 ft 441 kts 330°
2026-05-04 00:13 27.40475 -80.89027 27066 ft 455 kts 331°
2026-05-04 00:13 27.43473 -80.90236 27057 ft 456 kts 331°
2026-05-04 00:13 27.46440 -80.91450 27053 ft 451 kts 331°
2026-05-04 00:13 27.49368 -80.92665 27045 ft 446 kts 330°
2026-05-04 00:14 27.52279 -80.93871 27045 ft 445 kts 331°
2026-05-04 00:14 27.55197 -80.95073 27042 ft 447 kts 331°
2026-05-04 00:14 27.58118 -80.96275 27048 ft 449 kts 331°
2026-05-04 00:14 27.61057 -80.97487 27047 ft 450 kts 331°
2026-05-04 00:15 27.64003 -80.98705 27052 ft 451 kts 331°
2026-05-04 00:15 27.66946 -80.99919 27050 ft 450 kts 331°
2026-05-04 00:15 27.69882 -81.01132 27055 ft 449 kts 331°
2026-05-04 00:15 27.72783 -81.02332 27048 ft 447 kts 331°
2026-05-04 00:16 27.75703 -81.03541 27051 ft 447 kts 331°
2026-05-04 00:16 27.78619 -81.04749 27068 ft 447 kts 330°
2026-05-04 00:16 27.81540 -81.05960 27060 ft 447 kts 330°
2026-05-04 00:16 27.84470 -81.07174 27060 ft 448 kts 330°
2026-05-04 00:17 27.87396 -81.08387 27060 ft 448 kts 330°
2026-05-04 00:17 27.90335 -81.09606 27067 ft 448 kts 330°
2026-05-04 00:17 27.93271 -81.10826 27067 ft 449 kts 330°
2026-05-04 00:17 27.96171 -81.12031 27066 ft 449 kts 330°
2026-05-04 00:18 27.99106 -81.13251 27068 ft 449 kts 330°
2026-05-04 00:18 28.02035 -81.14469 27068 ft 450 kts 330°
2026-05-04 00:18 28.05003 -81.15643 27077 ft 453 kts 333°
2026-05-04 00:18 28.08004 -81.16716 27077 ft 453 kts 333°
2026-05-04 00:19 28.11014 -81.17794 27071 ft 452 kts 333°
2026-05-04 00:19 28.13997 -81.18875 27078 ft 448 kts 333°
2026-05-04 00:19 28.16963 -81.19954 27087 ft 447 kts 333°
2026-05-04 00:19 28.19932 -81.21029 27086 ft 448 kts 333°
2026-05-04 00:20 28.22907 -81.22106 27091 ft 449 kts 333°
2026-05-04 00:20 28.25888 -81.23185 27087 ft 450 kts 333°
2026-05-04 00:20 28.28873 -81.24267 27087 ft 451 kts 333°
2026-05-04 00:20 28.31867 -81.25354 27089 ft 451 kts 333°
2026-05-04 00:21 28.34843 -81.26432 27090 ft 450 kts 333°
2026-05-04 00:21 28.37826 -81.27515 27083 ft 449 kts 333°
2026-05-04 00:21 28.40805 -81.28598 27090 ft 449 kts 333°
2026-05-04 00:21 28.43772 -81.29676 27088 ft 447 kts 333°
2026-05-04 00:22 28.46730 -81.30752 27084 ft 445 kts 333°
2026-05-04 00:22 28.49684 -81.31829 27092 ft 445 kts 333°
2026-05-04 00:22 28.52603 -81.32877 27091 ft 448 kts 335°
2026-05-04 00:22 28.55714 -81.33615 27088 ft 459 kts 343°
2026-05-04 00:23 28.58918 -81.33964 27088 ft 464 kts 347°
2026-05-04 00:23 28.62143 -81.34272 27091 ft 465 kts 346°
2026-05-04 00:23 28.65361 -81.34599 27093 ft 465 kts 346°
2026-05-04 00:23 28.68584 -81.34926 27137 ft 464 kts 346°
2026-05-04 00:24 28.71796 -81.35243 27096 ft 464 kts 347°
2026-05-04 00:24 28.75015 -81.35558 27094 ft 462 kts 346°
2026-05-04 00:24 28.78171 -81.35873 27095 ft 461 kts 346°
2026-05-04 00:24 28.81374 -81.36195 27094 ft 461 kts 346°
2026-05-04 00:25 28.84572 -81.36515 27101 ft 462 kts 346°
2026-05-04 00:25 28.87778 -81.36833 27105 ft 463 kts 346°
2026-05-04 00:25 28.90993 -81.37153 27110 ft 464 kts 346°
2026-05-04 00:25 28.94229 -81.37477 27113 ft 465 kts 346°
2026-05-04 00:26 28.97450 -81.37799 27154 ft 465 kts 347°
2026-05-04 00:26 29.00676 -81.38120 27113 ft 465 kts 347°
2026-05-04 00:26 29.03892 -81.38440 27114 ft 462 kts 347°
2026-05-04 00:26 29.07048 -81.38750 27105 ft 449 kts 346°
2026-05-04 00:27 29.10118 -81.39060 27103 ft 451 kts 346°
2026-05-04 00:27 29.13215 -81.39376 27060 ft 436 kts 346°
2026-05-04 00:27 29.16175 -81.39659 26679 ft 421 kts 346°
2026-05-04 00:27 29.19061 -81.39950 26176 ft 411 kts 346°
2026-05-04 00:28 29.21878 -81.40241 25690 ft 402 kts 346°
2026-05-04 00:28 29.24639 -81.40520 25208 ft 394 kts 346°
2026-05-04 00:28 29.27357 -81.40790 24771 ft 387 kts 346°
2026-05-04 00:28 29.30017 -81.41057 24317 ft 381 kts 346°
2026-05-04 00:29 29.32669 -81.41145 23845 ft 388 kts 359°
2026-05-04 00:29 29.35313 -81.40801 23330 ft 372 kts 348°
2026-05-04 00:29 29.37802 -81.41229 22822 ft 355 kts 338°
2026-05-04 00:29 29.40234 -81.41749 22308 ft 355 kts 342°
2026-05-04 00:30 29.42685 -81.42094 21796 ft 355 kts 346°
2026-05-04 00:30 29.45114 -81.42286 21305 ft 354 kts 347°
2026-05-04 00:30 29.47554 -81.42485 20812 ft 349 kts 346°
2026-05-04 00:30 29.49959 -81.42750 20330 ft 346 kts 345°
2026-05-04 00:31 29.52349 -81.43022 19742 ft 347 kts 346°
2026-05-04 00:31 29.54770 -81.43272 19047 ft 352 kts 347°
2026-05-04 00:31 29.57223 -81.43514 18393 ft 355 kts 347°
2026-05-04 00:31 29.59699 -81.43765 17615 ft 357 kts 347°
2026-05-04 00:32 29.62139 -81.44174 16851 ft 352 kts 341°
2026-05-04 00:32 29.64537 -81.44738 16111 ft 352 kts 341°
2026-05-04 00:32 29.66942 -81.45273 15388 ft 352 kts 342°
2026-05-04 00:32 29.69352 -81.45768 14679 ft 351 kts 342°
2026-05-04 00:33 29.71720 -81.46262 13990 ft 348 kts 342°
2026-05-04 00:33 29.76452 -81.47289 12471 ft 344 kts 343°
2026-05-04 00:33 29.78799 -81.47791 11732 ft 341 kts 345°
2026-05-04 00:34 29.81116 -81.48286 11014 ft 338 kts 345°
2026-05-04 00:34 29.83423 -81.48783 10309 ft 335 kts 346°
2026-05-04 00:34 29.85693 -81.49270 9706 ft 329 kts 347°
2026-05-04 00:34 29.87925 -81.49748 9058 ft 323 kts 347°
2026-05-04 00:35 29.90121 -81.50219 8431 ft 319 kts 347°
2026-05-04 00:35 29.92287 -81.50686 7808 ft 315 kts 348°
2026-05-04 00:35 29.94430 -81.51147 7201 ft 311 kts 348°
2026-05-04 00:35 29.96548 -81.51603 6605 ft 308 kts 348°
2026-05-04 00:36 29.98622 -81.52049 5979 ft 305 kts 348°
2026-05-04 00:36 30.00699 -81.52497 5345 ft 302 kts 349°
2026-05-04 00:36 30.02759 -81.52940 4747 ft 300 kts 349°
2026-05-04 00:36 30.04791 -81.53379 4238 ft 294 kts 349°
2026-05-04 00:37 30.06789 -81.53811 3733 ft 289 kts 350°
2026-05-04 00:37 30.08754 -81.54237 3219 ft 286 kts 351°
2026-05-04 00:37 30.10694 -81.54658 2722 ft 282 kts 351°
2026-05-04 00:37 30.12609 -81.55068 2215 ft 279 kts 351°
2026-05-04 00:38 30.14501 -81.55470 1988 ft 269 kts 352°
2026-05-04 00:38 30.16276 -81.55859 1972 ft 251 kts 352°
2026-05-04 00:38 30.17387 -81.56103 1966 ft 239 kts 352°
2026-05-04 00:38 30.19436 -81.56545 1982 ft 215 kts 352°
2026-05-04 00:39 30.20881 -81.56855 1727 ft 206 kts 352°
2026-05-04 00:39 30.22255 -81.57154 1450 ft 196 kts 353°
2026-05-04 00:39 30.23548 -81.57432 1217 ft 182 kts 353°
2026-05-04 00:39 30.24357 -81.57609 1026 ft 175 kts 354°
2026-05-04 00:40 30.25490 -81.57855 974 ft 155 kts 353°
2026-05-04 00:40 30.26553 -81.58076 990 ft 158 kts 356°
2026-05-04 00:40 30.27659 -81.57896 1016 ft 162 kts 25°
2026-05-04 00:40 30.28579 -81.57172 1006 ft 158 kts 49°
2026-05-04 00:41 30.29343 -81.56276 994 ft 154 kts 47°
2026-05-04 00:41 30.30073 -81.55369 861 ft 158 kts 44°
2026-05-04 00:41 30.30773 -81.54384 724 ft 157 kts 47°
2026-05-04 00:41 30.31475 -81.53489 664 ft 140 kts 41°
2026-05-04 00:42 30.32192 -81.52703 407 ft 141 kts 41°
2026-05-04 00:42 30.32872 -81.51913 80 ft 139 kts 44°
2026-05-04 00:42 30.33458 -81.51237 44 ft 70 kts 45°
2026-05-04 00:42 30.33541 -81.51143 44 ft 0 kts 45°
2026-05-04 00:43 30.33572 -81.51107 44 ft 19 kts 46°
2026-05-04 00:43 30.33631 -81.51101 44 ft 15 kts 271°
2026-05-04 00:43 30.33628 -81.51228 44 ft 17 kts 270°
2026-05-04 00:43 30.33568 -81.51349 43 ft 19 kts 225°
2026-05-04 00:44 30.33475 -81.51458 43 ft 15 kts 244°
2026-05-04 00:44 30.33502 -81.51524 42 ft 12 kts 311°
2026-05-04 00:44 30.33521 -81.51603 42 ft 11 kts 230°
2026-05-04 00:44 30.33510 -81.51617 42 ft 0 kts 227°